Location: Unspecified
(50.7693°N, 0.0000°E)
Time: 15:00:44
(UTC+00:00)

Transit 2A - Pass Details

Date: 30 June 2019
Orbit: 594 x 964 km, 66.7° (Epoch: 21 July)

Event Time Altitude Azimuth Distance (km) Brightness Sun altitude
Exits shadow 21:03:08 - 166° (SSE) 3,310 8.7 -6.1°
Reaches altitude 10° 21:05:13 10° 156° (SSE) 2,696 8.2 -6.3°
Maximum altitude 21:09:58 23° 108° (ESE) 1,932 7.6 -6.8°
Drops below altitude 10° 21:14:38 10° 59° (ENE) 2,652 8.7 -7.2°
Sets 21:17:38 0° 45° (NE) 3,558 9.5 -7.5°
